owner,sensor,date,latitude,longitude,vertical_datum,mass_concentration_of_oxygen_in_sea_water,qcFlag 
DISL,ioos:station:DISL:MHPA:1,2008-02-01T00:00:00Z,30.6671,-87.9365,5.095,12.48,1111122 
DISL,ioos:station:DISL:MHPA:1,2008-02-01T00:30:00Z,30.6671,-87.9365,5.159,12.27,1111122 
DISL,ioos:station:DISL:MHPA:1,2008-02-01T01:00:00Z,30.6671,-87.9365,5.233,11.98,1111122 
DISL,ioos:station:DISL:MHPA:1,2008-02-01T01:30:00Z,30.6671,-87.9365,5.022,11.86,1111122 
DISL,ioos:station:DISL:MHPA:1,2008-02-01T02:00:00Z,30.6671,-87.9365,4.999,11.71,1111122 
DISL,ioos:station:DISL:MHPA:1,2008-02-01T02:30:00Z,30.6671,-87.9365,5.275,11.54,1111122 
DISL,ioos:station:DISL:MHPA:1,2008-02-01T03:00:00Z,30.6671,-87.9365,5.017,11.35,1111122 
DISL,ioos:station:DISL:MHPA:1,2008-02-01T03:30:00Z,30.6671,-87.9365,4.819,11.15,1111122 
DISL,ioos:station:DISL:MHPA:1,2008-02-01T04:00:00Z,30.6671,-87.9365,4.761,10.63,1111122 
DISL,ioos:station:DISL:MHPA:1,2008-02-01T04:30:00Z,30.6671,-87.9365,4.528,10.66,1111122 
DISL,ioos:station:DISL:MHPA:1,2008-02-01T05:00:00Z,30.6671,-87.9365,4.552,10.34,1111122 
DISL,ioos:station:DISL:MHPA:1,2008-02-01T05:30:00Z,30.6671,-87.9365,4.473,10.36,1111122 
DISL,ioos:station:DISL:MHPA:1,2008-02-01T06:00:00Z,30.6671,-87.9365,4.293,10.79,1111122 
DISL,ioos:station:DISL:MHPA:1,2008-02-01T06:30:00Z,30.6671,-87.9365,4.225,10.01,1111122 
DISL,ioos:station:DISL:MHPA:1,2008-02-01T07:00:00Z,30.6671,-87.9365,3.993,10.74,1111122 
DISL,ioos:station:DISL:MHPA:1,2008-02-01T07:30:00Z,30.6671,-87.9365,3.739,10.43,1111122 
DISL,ioos:station:DISL:MHPA:1,2008-02-01T08:00:00Z,30.6671,-87.9365,3.512,10.45,1111122 
DISL,ioos:station:DISL:MHPA:1,2008-02-01T08:30:00Z,30.6671,-87.9365,3.353,10.15,1111122 
DISL,ioos:station:DISL:MHPA:1,2008-02-01T09:00:00Z,30.6671,-87.9365,3.263,10.37,1111122 
DISL,ioos:station:DISL:MHPA:1,2008-02-01T09:30:00Z,30.6671,-87.9365,3.178,10.4,1111122 
DISL,ioos:station:DISL:MHPA:1,2008-02-01T10:00:00Z,30.6671,-87.9365,3.057,9.93,1111122 
DISL,ioos:station:DISL:MHPA:1,2008-02-01T10:30:00Z,30.6671,-87.9365,3.007,10.26,1111122 
DISL,ioos:station:DISL:MHPA:1,2008-02-01T11:00:00Z,30.6671,-87.9365,2.898,10.33,1111122 
DISL,ioos:station:DISL:MHPA:1,2008-02-01T11:30:00Z,30.6671,-87.9365,2.697,10.34,1111122 
DISL,ioos:station:DISL:MHPA:1,2008-02-01T12:00:00Z,30.6671,-87.9365,2.533,10.31,1111122 
DISL,ioos:station:DISL:MHPA:1,2008-02-01T12:30:00Z,30.6671,-87.9365,2.446,10.21,1111122 
DISL,ioos:station:DISL:MHPA:1,2008-02-01T13:00:00Z,30.6671,-87.9365,2.35,10.18,1111122 
DISL,ioos:station:DISL:MHPA:1,2008-02-01T13:30:00Z,30.6671,-87.9365,2.262,10.11,1111122 
DISL,ioos:station:DISL:MHPA:1,2008-02-01T14:00:00Z,30.6671,-87.9365,2.164,10.11,1111122 
DISL,ioos:station:DISL:MHPA:1,2008-02-01T14:30:00Z,30.6671,-87.9365,2.116,10.21,1111122 
DISL,ioos:station:DISL:MHPA:1,2008-02-01T15:00:00Z,30.6671,-87.9365,2.021,10.45,1111122 
DISL,ioos:station:DISL:MHPA:1,2008-02-01T15:30:00Z,30.6671,-87.9365,1.981,10.72,1111122 
DISL,ioos:station:DISL:MHPA:1,2008-02-01T16:00:00Z,30.6671,-87.9365,1.94,11.06,1111122 
DISL,ioos:station:DISL:MHPA:1,2008-02-01T16:30:00Z,30.6671,-87.9365,1.957,11.54,1111122 
DISL,ioos:station:DISL:MHPA:1,2008-02-01T17:00:00Z,30.6671,-87.9365,2.157,11.79,1111122 
DISL,ioos:station:DISL:MHPA:1,2008-02-01T17:30:00Z,30.6671,-87.9365,2.301,11.75,1111122 
DISL,ioos:station:DISL:MHPA:1,2008-02-01T18:00:00Z,30.6671,-87.9365,2.412,12.33,1111122 
DISL,ioos:station:DISL:MHPA:1,2008-02-01T18:30:00Z,30.6671,-87.9365,2.466,12.75,1111122 
DISL,ioos:station:DISL:MHPA:1,2008-02-01T19:00:00Z,30.6671,-87.9365,2.579,12.6,1111122 
DISL,ioos:station:DISL:MHPA:1,2008-02-01T19:30:00Z,30.6671,-87.9365,2.808,12.4,1111122 
DISL,ioos:station:DISL:MHPA:1,2008-02-01T20:00:00Z,30.6671,-87.9365,2.978,13.19,1111122 
DISL,ioos:station:DISL:MHPA:1,2008-02-01T20:30:00Z,30.6671,-87.9365,3.043,13.27,1111122 
DISL,ioos:station:DISL:MHPA:1,2008-02-01T21:00:00Z,30.6671,-87.9365,3.281,13.51,1111122 
DISL,ioos:station:DISL:MHPA:1,2008-02-01T21:30:00Z,30.6671,-87.9365,3.395,14.23,1111122 
DISL,ioos:station:DISL:MHPA:1,2008-02-01T22:00:00Z,30.6671,-87.9365,3.521,14.66,1111122 
DISL,ioos:station:DISL:MHPA:1,2008-02-01T22:30:00Z,30.6671,-87.9365,3.682,14.43,1111122 
DISL,ioos:station:DISL:MHPA:1,2008-02-01T23:00:00Z,30.6671,-87.9365,3.74,14.24,1111122 
DISL,ioos:station:DISL:MHPA:1,2008-02-01T23:30:00Z,30.6671,-87.9365,3.834,13.31,1111122 
DISL,ioos:station:DISL:MHPA:1,2008-02-02T00:00:00Z,30.6671,-87.9365,3.909,13.78,1111122 
DISL,ioos:station:DISL:MHPA:1,2008-02-02T00:30:00Z,30.6671,-87.9365,3.89,13.99,1111122 
DISL,ioos:station:DISL:MHPA:1,2008-02-02T01:00:00Z,30.6671,-87.9365,4.013,14.12,1111122 
DISL,ioos:station:DISL:MHPA:1,2008-02-02T01:30:00Z,30.6671,-87.9365,4.104,14.19,1111122 
DISL,ioos:station:DISL:MHPA:1,2008-02-02T02:00:00Z,30.6671,-87.9365,4.075,14.33,1111122 
DISL,ioos:station:DISL:MHPA:1,2008-02-02T02:30:00Z,30.6671,-87.9365,4.028,13.22,1111122 
DISL,ioos:station:DISL:MHPA:1,2008-02-02T03:00:00Z,30.6671,-87.9365,4.021,11.3,1111122 
DISL,ioos:station:DISL:MHPA:1,2008-02-02T03:30:00Z,30.6671,-87.9365,3.876,11.46,1111122 
DISL,ioos:station:DISL:MHPA:1,2008-02-02T04:00:00Z,30.6671,-87.9365,3.794,12.31,1111122 
DISL,ioos:station:DISL:MHPA:1,2008-02-02T04:30:00Z,30.6671,-87.9365,3.686,11.91,1111122 
DISL,ioos:station:DISL:MHPA:1,2008-02-02T05:00:00Z,30.6671,-87.9365,3.545,12.26,1111122 
DISL,ioos:station:DISL:MHPA:1,2008-02-02T05:30:00Z,30.6671,-87.9365,3.438,12.34,1111122 
DISL,ioos:station:DISL:MHPA:1,2008-02-02T06:00:00Z,30.6671,-87.9365,3.403,11.91,1111122 
DISL,ioos:station:DISL:MHPA:1,2008-02-02T06:30:00Z,30.6671,-87.9365,3.257,12.63,1111122 
DISL,ioos:station:DISL:MHPA:1,2008-02-02T07:00:00Z,30.6671,-87.9365,3.152,13.2,1111122 
DISL,ioos:station:DISL:MHPA:1,2008-02-02T07:30:00Z,30.6671,-87.9365,2.99,12.9,1111122 
DISL,ioos:station:DISL:MHPA:1,2008-02-02T08:00:00Z,30.6671,-87.9365,2.875,11.98,1111122 
DISL,ioos:station:DISL:MHPA:1,2008-02-02T08:30:00Z,30.6671,-87.9365,2.78,11.67,1111122 
DISL,ioos:station:DISL:MHPA:1,2008-02-02T09:00:00Z,30.6671,-87.9365,2.697,11.92,1111122 
DISL,ioos:station:DISL:MHPA:1,2008-02-02T09:30:00Z,30.6671,-87.9365,2.613,11.66,1111122 
DISL,ioos:station:DISL:MHPA:1,2008-02-02T10:00:00Z,30.6671,-87.9365,2.523,11.65,1111122 
DISL,ioos:station:DISL:MHPA:1,2008-02-02T10:30:00Z,30.6671,-87.9365,2.419,11.56,1111122 
DISL,ioos:station:DISL:MHPA:1,2008-02-02T11:00:00Z,30.6671,-87.9365,2.316,11.54,1111122 
DISL,ioos:station:DISL:MHPA:1,2008-02-02T11:30:00Z,30.6671,-87.9365,2.227,11.62,1111122 
DISL,ioos:station:DISL:MHPA:1,2008-02-02T12:00:00Z,30.6671,-87.9365,2.137,11.79,1111122 
DISL,ioos:station:DISL:MHPA:1,2008-02-02T12:30:00Z,30.6671,-87.9365,2.082,11.83,1111122 
DISL,ioos:station:DISL:MHPA:1,2008-02-02T13:00:00Z,30.6671,-87.9365,2.004,11.77,1111122 
DISL,ioos:station:DISL:MHPA:1,2008-02-02T13:30:00Z,30.6671,-87.9365,1.958,11.8,1111122 
DISL,ioos:station:DISL:MHPA:1,2008-02-02T14:00:00Z,30.6671,-87.9365,1.939,13.21,1111122 
DISL,ioos:station:DISL:MHPA:1,2008-02-02T14:30:00Z,30.6671,-87.9365,1.939,13.96,1111122 
DISL,ioos:station:DISL:MHPA:1,2008-02-02T15:00:00Z,30.6671,-87.9365,1.962,12.66,1111122 
DISL,ioos:station:DISL:MHPA:1,2008-02-02T15:30:00Z,30.6671,-87.9365,2.059,12.86,1111122 
DISL,ioos:station:DISL:MHPA:1,2008-02-02T16:00:00Z,30.6671,-87.9365,2.059,12.31,1111122 
DISL,ioos:station:DISL:MHPA:1,2008-02-02T16:30:00Z,30.6671,-87.9365,2.115,12.12,1111122 
DISL,ioos:station:DISL:MHPA:1,2008-02-02T17:00:00Z,30.6671,-87.9365,2.303,11.86,1111122 
DISL,ioos:station:DISL:MHPA:1,2008-02-02T17:30:00Z,30.6671,-87.9365,2.436,12.77,1111122 
DISL,ioos:station:DISL:MHPA:1,2008-02-02T18:00:00Z,30.6671,-87.9365,2.541,12.66,1111122 
DISL,ioos:station:DISL:MHPA:1,2008-02-02T18:30:00Z,30.6671,-87.9365,2.693,13.09,1111122 
DISL,ioos:station:DISL:MHPA:1,2008-02-02T19:00:00Z,30.6671,-87.9365,2.846,12.45,1111122 
DISL,ioos:station:DISL:MHPA:1,2008-02-02T19:30:00Z,30.6671,-87.9365,3.044,12.15,1111122 
DISL,ioos:station:DISL:MHPA:1,2008-02-02T20:00:00Z,30.6671,-87.9365,3.154,12.18,1111122 
DISL,ioos:station:DISL:MHPA:1,2008-02-02T20:30:00Z,30.6671,-87.9365,3.227,12.6,1111122 
DISL,ioos:station:DISL:MHPA:1,2008-02-02T21:00:00Z,30.6671,-87.9365,3.296,13.48,1111122 
DISL,ioos:station:DISL:MHPA:1,2008-02-02T21:30:00Z,30.6671,-87.9365,3.394,14.96,1111122 
DISL,ioos:station:DISL:MHPA:1,2008-02-02T22:00:00Z,30.6671,-87.9365,3.522,14.94,1111122 
DISL,ioos:station:DISL:MHPA:1,2008-02-02T22:30:00Z,30.6671,-87.9365,3.622,14.03,1111122 
DISL,ioos:station:DISL:MHPA:1,2008-02-02T23:00:00Z,30.6671,-87.9365,3.744,14.34,1111122 
DISL,ioos:station:DISL:MHPA:1,2008-02-02T23:30:00Z,30.6671,-87.9365,3.815,14.3,1111122 
DISL,ioos:station:DISL:MHPA:1,2008-02-03T00:00:00Z,30.6671,-87.9365,3.905,13.21,1111122 
DISL,ioos:station:DISL:MHPA:1,2008-02-03T00:30:00Z,30.6671,-87.9365,3.955,12.59,1111122 
DISL,ioos:station:DISL:MHPA:1,2008-02-03T01:00:00Z,30.6671,-87.9365,3.976,12.05,1111122 
DISL,ioos:station:DISL:MHPA:1,2008-02-03T01:30:00Z,30.6671,-87.9365,4.052,13.75,1111122 
DISL,ioos:station:DISL:MHPA:1,2008-02-03T02:00:00Z,30.6671,-87.9365,3.995,13.91,1111122 
DISL,ioos:station:DISL:MHPA:1,2008-02-03T02:30:00Z,30.6671,-87.9365,4.022,13.0,1111122 
DISL,ioos:station:DISL:MHPA:1,2008-02-03T03:00:00Z,30.6671,-87.9365,4.015,12.64,1111122 
DISL,ioos:station:DISL:MHPA:1,2008-02-03T03:30:00Z,30.6671,-87.9365,3.958,13.05,1111122 
DISL,ioos:station:DISL:MHPA:1,2008-02-03T04:00:00Z,30.6671,-87.9365,3.841,13.32,1111122 
DISL,ioos:station:DISL:MHPA:1,2008-02-03T04:30:00Z,30.6671,-87.9365,3.745,12.37,1111122 
DISL,ioos:station:DISL:MHPA:1,2008-02-03T05:00:00Z,30.6671,-87.9365,3.623,12.31,1111122 
DISL,ioos:station:DISL:MHPA:1,2008-02-03T05:30:00Z,30.6671,-87.9365,3.464,11.81,1111122 
DISL,ioos:station:DISL:MHPA:1,2008-02-03T06:00:00Z,30.6671,-87.9365,3.363,11.61,1111122 
DISL,ioos:station:DISL:MHPA:1,2008-02-03T06:30:00Z,30.6671,-87.9365,3.241,11.56,1111122 
DISL,ioos:station:DISL:MHPA:1,2008-02-03T07:00:00Z,30.6671,-87.9365,3.123,12.0,1111122 
DISL,ioos:station:DISL:MHPA:1,2008-02-03T07:30:00Z,30.6671,-87.9365,3.033,12.17,1111122 
DISL,ioos:station:DISL:MHPA:1,2008-02-03T08:00:00Z,30.6671,-87.9365,2.927,12.6,1111122 
DISL,ioos:station:DISL:MHPA:1,2008-02-03T08:30:00Z,30.6671,-87.9365,2.801,12.6,1111122 
DISL,ioos:station:DISL:MHPA:1,2008-02-03T09:00:00Z,30.6671,-87.9365,2.689,12.14,1111122 
DISL,ioos:station:DISL:MHPA:1,2008-02-03T09:30:00Z,30.6671,-87.9365,2.565,11.84,1111122 
DISL,ioos:station:DISL:MHPA:1,2008-02-03T10:00:00Z,30.6671,-87.9365,2.442,11.98,1111122 
DISL,ioos:station:DISL:MHPA:1,2008-02-03T10:30:00Z,30.6671,-87.9365,2.35,12.41,1111122 
DISL,ioos:station:DISL:MHPA:1,2008-02-03T11:00:00Z,30.6671,-87.9365,2.282,12.71,1111122 
DISL,ioos:station:DISL:MHPA:1,2008-02-03T11:30:00Z,30.6671,-87.9365,2.209,12.4,1111122 
DISL,ioos:station:DISL:MHPA:1,2008-02-03T12:00:00Z,30.6671,-87.9365,2.141,9.87,1111122 
DISL,ioos:station:DISL:MHPA:1,2008-02-03T12:30:00Z,30.6671,-87.9365,2.073,10.85,1111122 
DISL,ioos:station:DISL:MHPA:1,2008-02-03T13:00:00Z,30.6671,-87.9365,2.0,11.75,1111122 
DISL,ioos:station:DISL:MHPA:1,2008-02-03T13:30:00Z,30.6671,-87.9365,1.934,11.0,1111122 
DISL,ioos:station:DISL:MHPA:1,2008-02-03T14:00:00Z,30.6671,-87.9365,1.892,11.43,1111122 
DISL,ioos:station:DISL:MHPA:1,2008-02-03T14:30:00Z,30.6671,-87.9365,1.872,11.25,1111122 
DISL,ioos:station:DISL:MHPA:1,2008-02-03T15:00:00Z,30.6671,-87.9365,1.875,12.48,1111122 
DISL,ioos:station:DISL:MHPA:1,2008-02-03T15:30:00Z,30.6671,-87.9365,1.896,11.52,1111122 
DISL,ioos:station:DISL:MHPA:1,2008-02-03T16:00:00Z,30.6671,-87.9365,1.942,11.37,1111122 
DISL,ioos:station:DISL:MHPA:1,2008-02-03T16:30:00Z,30.6671,-87.9365,2.099,11.44,1111122 
DISL,ioos:station:DISL:MHPA:1,2008-02-03T17:00:00Z,30.6671,-87.9365,2.283,11.72,1111122 
DISL,ioos:station:DISL:MHPA:1,2008-02-03T17:30:00Z,30.6671,-87.9365,2.446,11.22,1111122 
DISL,ioos:station:DISL:MHPA:1,2008-02-03T18:00:00Z,30.6671,-87.9365,2.649,11.2,1111122 
DISL,ioos:station:DISL:MHPA:1,2008-02-03T18:30:00Z,30.6671,-87.9365,2.785,10.74,1111122 
DISL,ioos:station:DISL:MHPA:1,2008-02-03T19:00:00Z,30.6671,-87.9365,2.933,10.93,1111122 
DISL,ioos:station:DISL:MHPA:1,2008-02-03T19:30:00Z,30.6671,-87.9365,3.072,11.3,1111122 
DISL,ioos:station:DISL:MHPA:1,2008-02-03T20:00:00Z,30.6671,-87.9365,3.18,11.4,1111122 
DISL,ioos:station:DISL:MHPA:1,2008-02-03T20:30:00Z,30.6671,-87.9365,3.332,11.58,1111122 
DISL,ioos:station:DISL:MHPA:1,2008-02-03T21:00:00Z,30.6671,-87.9365,3.509,11.97,1111122 
DISL,ioos:station:DISL:MHPA:1,2008-02-03T21:30:00Z,30.6671,-87.9365,3.572,12.05,1111122 
DISL,ioos:station:DISL:MHPA:1,2008-02-03T22:00:00Z,30.6671,-87.9365,3.718,11.65,1111122 
DISL,ioos:station:DISL:MHPA:1,2008-02-03T22:30:00Z,30.6671,-87.9365,3.764,12.84,1111122 
DISL,ioos:station:DISL:MHPA:1,2008-02-03T23:00:00Z,30.6671,-87.9365,3.817,12.85,1111122 
DISL,ioos:station:DISL:MHPA:1,2008-02-03T23:30:00Z,30.6671,-87.9365,3.937,12.28,1111122 
DISL,ioos:station:DISL:MHPA:1,2008-02-04T00:00:00Z,30.6671,-87.9365,3.999,12.43,1111122 
DISL,ioos:station:DISL:MHPA:1,2008-02-04T00:30:00Z,30.6671,-87.9365,4.124,11.72,1111122 
DISL,ioos:station:DISL:MHPA:1,2008-02-04T01:00:00Z,30.6671,-87.9365,4.231,11.71,1111122 
DISL,ioos:station:DISL:MHPA:1,2008-02-04T01:30:00Z,30.6671,-87.9365,4.289,11.61,1111122 
DISL,ioos:station:DISL:MHPA:1,2008-02-04T02:00:00Z,30.6671,-87.9365,4.312,11.85,1111122 
DISL,ioos:station:DISL:MHPA:1,2008-02-04T02:30:00Z,30.6671,-87.9365,4.307,11.5,1111122 
DISL,ioos:station:DISL:MHPA:1,2008-02-04T03:00:00Z,30.6671,-87.9365,4.343,11.96,1111122 
DISL,ioos:station:DISL:MHPA:1,2008-02-04T03:30:00Z,30.6671,-87.9365,4.364,11.55,1111122 
DISL,ioos:station:DISL:MHPA:1,2008-02-04T04:00:00Z,30.6671,-87.9365,4.283,11.77,1111122 
DISL,ioos:station:DISL:MHPA:1,2008-02-04T04:30:00Z,30.6671,-87.9365,4.195,11.59,1111122 
DISL,ioos:station:DISL:MHPA:1,2008-02-04T05:00:00Z,30.6671,-87.9365,4.087,11.66,1111122 
DISL,ioos:station:DISL:MHPA:1,2008-02-04T05:30:00Z,30.6671,-87.9365,3.973,11.65,1111122 
DISL,ioos:station:DISL:MHPA:1,2008-02-04T06:00:00Z,30.6671,-87.9365,3.832,11.44,1111122 
DISL,ioos:station:DISL:MHPA:1,2008-02-04T06:30:00Z,30.6671,-87.9365,3.759,11.33,1111122 
DISL,ioos:station:DISL:MHPA:1,2008-02-04T07:00:00Z,30.6671,-87.9365,3.631,11.0,1111122 
DISL,ioos:station:DISL:MHPA:1,2008-02-04T07:30:00Z,30.6671,-87.9365,3.5,11.15,1111122 
DISL,ioos:station:DISL:MHPA:1,2008-02-04T08:00:00Z,30.6671,-87.9365,3.382,11.03,1111122 
DISL,ioos:station:DISL:MHPA:1,2008-02-04T08:30:00Z,30.6671,-87.9365,3.273,10.92,1111122 
DISL,ioos:station:DISL:MHPA:1,2008-02-04T09:00:00Z,30.6671,-87.9365,3.177,10.85,1111122 
DISL,ioos:station:DISL:MHPA:1,2008-02-04T09:30:00Z,30.6671,-87.9365,3.058,10.89,1111122 
DISL,ioos:station:DISL:MHPA:1,2008-02-04T10:00:00Z,30.6671,-87.9365,2.946,10.67,1111122 
DISL,ioos:station:DISL:MHPA:1,2008-02-04T10:30:00Z,30.6671,-87.9365,2.832,10.58,1111122 
DISL,ioos:station:DISL:MHPA:1,2008-02-04T11:00:00Z,30.6671,-87.9365,2.719,10.48,1111122 
DISL,ioos:station:DISL:MHPA:1,2008-02-04T11:30:00Z,30.6671,-87.9365,2.626,10.45,1111122 
DISL,ioos:station:DISL:MHPA:1,2008-02-04T12:00:00Z,30.6671,-87.9365,2.545,10.33,1111122 
DISL,ioos:station:DISL:MHPA:1,2008-02-04T12:30:00Z,30.6671,-87.9365,2.469,10.29,1111122 
DISL,ioos:station:DISL:MHPA:1,2008-02-04T13:00:00Z,30.6671,-87.9365,2.39,10.21,1111122 
DISL,ioos:station:DISL:MHPA:1,2008-02-04T13:30:00Z,30.6671,-87.9365,2.323,10.26,1111122 
DISL,ioos:station:DISL:MHPA:1,2008-02-04T14:00:00Z,30.6671,-87.9365,2.262,10.22,1111122 
DISL,ioos:station:DISL:MHPA:1,2008-02-04T14:30:00Z,30.6671,-87.9365,2.213,10.2,1111122 
DISL,ioos:station:DISL:MHPA:1,2008-02-04T15:00:00Z,30.6671,-87.9365,2.195,10.05,1111122 
DISL,ioos:station:DISL:MHPA:1,2008-02-04T15:30:00Z,30.6671,-87.9365,2.18,10.07,1111122 
DISL,ioos:station:DISL:MHPA:1,2008-02-04T16:00:00Z,30.6671,-87.9365,2.18,10.22,1111122 
DISL,ioos:station:DISL:MHPA:1,2008-02-04T16:30:00Z,30.6671,-87.9365,2.209,10.26,1111122 
DISL,ioos:station:DISL:MHPA:1,2008-02-04T17:00:00Z,30.6671,-87.9365,2.285,10.37,1111122 
DISL,ioos:station:DISL:MHPA:1,2008-02-04T17:30:00Z,30.6671,-87.9365,2.413,10.5,1111122 
DISL,ioos:station:DISL:MHPA:1,2008-02-04T18:00:00Z,30.6671,-87.9365,2.575,10.82,1111122 
DISL,ioos:station:DISL:MHPA:1,2008-02-04T18:30:00Z,30.6671,-87.9365,2.71,10.48,1111122 
DISL,ioos:station:DISL:MHPA:1,2008-02-04T19:00:00Z,30.6671,-87.9365,2.937,10.17,1111122 
DISL,ioos:station:DISL:MHPA:1,2008-02-04T19:30:00Z,30.6671,-87.9365,3.111,10.9,1111122 
DISL,ioos:station:DISL:MHPA:1,2008-02-04T20:00:00Z,30.6671,-87.9365,3.207,11.26,1111122 
DISL,ioos:station:DISL:MHPA:1,2008-02-04T20:30:00Z,30.6671,-87.9365,3.341,11.57,1111122 
DISL,ioos:station:DISL:MHPA:1,2008-02-04T21:00:00Z,30.6671,-87.9365,3.429,11.29,1111122 
DISL,ioos:station:DISL:MHPA:1,2008-02-04T21:30:00Z,30.6671,-87.9365,3.518,10.9,1111122 
DISL,ioos:station:DISL:MHPA:1,2008-02-04T22:00:00Z,30.6671,-87.9365,3.601,11.03,1111122 
DISL,ioos:station:DISL:MHPA:1,2008-02-04T22:30:00Z,30.6671,-87.9365,3.681,10.84,1111122 
DISL,ioos:station:DISL:MHPA:1,2008-02-04T23:00:00Z,30.6671,-87.9365,3.776,10.9,1111122 
DISL,ioos:station:DISL:MHPA:1,2008-02-04T23:30:00Z,30.6671,-87.9365,3.93,10.88,1111122 
DISL,ioos:station:DISL:MHPA:1,2008-02-05T00:00:00Z,30.6671,-87.9365,4.015,10.75,1111122 
DISL,ioos:station:DISL:MHPA:1,2008-02-05T00:30:00Z,30.6671,-87.9365,4.167,10.6,1111122 
DISL,ioos:station:DISL:MHPA:1,2008-02-05T01:00:00Z,30.6671,-87.9365,4.258,10.5,1111122 
DISL,ioos:station:DISL:MHPA:1,2008-02-05T01:30:00Z,30.6671,-87.9365,4.332,10.55,1111122 
DISL,ioos:station:DISL:MHPA:1,2008-02-05T02:00:00Z,30.6671,-87.9365,4.424,10.53,1111122 
DISL,ioos:station:DISL:MHPA:1,2008-02-05T02:30:00Z,30.6671,-87.9365,4.493,10.42,1111122 
DISL,ioos:station:DISL:MHPA:1,2008-02-05T03:00:00Z,30.6671,-87.9365,4.573,10.33,1111122 
DISL,ioos:station:DISL:MHPA:1,2008-02-05T03:30:00Z,30.6671,-87.9365,4.654,10.43,1111122 
DISL,ioos:station:DISL:MHPA:1,2008-02-05T04:00:00Z,30.6671,-87.9365,4.685,10.15,1111122 
DISL,ioos:station:DISL:MHPA:1,2008-02-05T04:30:00Z,30.6671,-87.9365,4.671,10.22,1111122 
DISL,ioos:station:DISL:MHPA:1,2008-02-05T05:00:00Z,30.6671,-87.9365,4.678,10.14,1111122 
DISL,ioos:station:DISL:MHPA:1,2008-02-05T05:30:00Z,30.6671,-87.9365,4.629,10.1,1111122 
DISL,ioos:station:DISL:MHPA:1,2008-02-05T06:00:00Z,30.6671,-87.9365,4.537,10.0,1111122 
DISL,ioos:station:DISL:MHPA:1,2008-02-05T06:30:00Z,30.6671,-87.9365,4.434,9.98,1111122 
DISL,ioos:station:DISL:MHPA:1,2008-02-05T07:00:00Z,30.6671,-87.9365,4.297,9.87,1111122 
DISL,ioos:station:DISL:MHPA:1,2008-02-05T07:30:00Z,30.6671,-87.9365,4.183,9.85,1111122 
DISL,ioos:station:DISL:MHPA:1,2008-02-05T08:00:00Z,30.6671,-87.9365,4.03,9.77,1111122 
DISL,ioos:station:DISL:MHPA:1,2008-02-05T08:30:00Z,30.6671,-87.9365,3.873,9.49,1111122 
DISL,ioos:station:DISL:MHPA:1,2008-02-05T09:00:00Z,30.6671,-87.9365,3.76,9.46,1111122 
DISL,ioos:station:DISL:MHPA:1,2008-02-05T09:30:00Z,30.6671,-87.9365,3.632,9.28,1111122 
DISL,ioos:station:DISL:MHPA:1,2008-02-05T10:00:00Z,30.6671,-87.9365,3.517,9.26,1111122 
DISL,ioos:station:DISL:MHPA:1,2008-02-05T10:30:00Z,30.6671,-87.9365,3.443,9.12,1111122 
DISL,ioos:station:DISL:MHPA:1,2008-02-05T11:00:00Z,30.6671,-87.9365,3.295,9.14,1111122 
DISL,ioos:station:DISL:MHPA:1,2008-02-05T11:30:00Z,30.6671,-87.9365,3.155,9.02,1111122 
DISL,ioos:station:DISL:MHPA:1,2008-02-05T12:00:00Z,30.6671,-87.9365,3.067,9.13,1111122 
DISL,ioos:station:DISL:MHPA:1,2008-02-05T12:30:00Z,30.6671,-87.9365,2.988,8.89,1111122 
DISL,ioos:station:DISL:MHPA:1,2008-02-05T13:00:00Z,30.6671,-87.9365,2.902,8.94,1111122 
DISL,ioos:station:DISL:MHPA:1,2008-02-05T13:30:00Z,30.6671,-87.9365,2.862,8.79,1111122 
DISL,ioos:station:DISL:MHPA:1,2008-02-05T14:00:00Z,30.6671,-87.9365,2.817,8.71,1111122 
DISL,ioos:station:DISL:MHPA:1,2008-02-05T14:30:00Z,30.6671,-87.9365,2.75,8.64,1111122 
DISL,ioos:station:DISL:MHPA:1,2008-02-05T15:00:00Z,30.6671,-87.9365,2.674,8.59,1111122 
DISL,ioos:station:DISL:MHPA:1,2008-02-05T15:30:00Z,30.6671,-87.9365,2.611,8.44,1111122 
DISL,ioos:station:DISL:MHPA:1,2008-02-05T16:00:00Z,30.6671,-87.9365,2.55,8.79,1111122 
DISL,ioos:station:DISL:MHPA:1,2008-02-05T16:30:00Z,30.6671,-87.9365,2.551,9.13,1111122 
DISL,ioos:station:DISL:MHPA:1,2008-02-05T17:00:00Z,30.6671,-87.9365,2.588,9.62,1111122 
DISL,ioos:station:DISL:MHPA:1,2008-02-05T17:30:00Z,30.6671,-87.9365,2.614,9.77,1111122 
DISL,ioos:station:DISL:MHPA:1,2008-02-05T18:00:00Z,30.6671,-87.9365,2.654,9.84,1111122 
DISL,ioos:station:DISL:MHPA:1,2008-02-05T18:30:00Z,30.6671,-87.9365,2.797,9.76,1111122 
DISL,ioos:station:DISL:MHPA:1,2008-02-05T19:00:00Z,30.6671,-87.9365,2.97,9.84,1111122 
DISL,ioos:station:DISL:MHPA:1,2008-02-05T19:30:00Z,30.6671,-87.9365,3.091,9.87,1111122 
DISL,ioos:station:DISL:MHPA:1,2008-02-05T20:00:00Z,30.6671,-87.9365,3.166,9.64,1111122 
DISL,ioos:station:DISL:MHPA:1,2008-02-05T20:30:00Z,30.6671,-87.9365,3.317,9.83,1111122 
DISL,ioos:station:DISL:MHPA:1,2008-02-05T21:00:00Z,30.6671,-87.9365,3.429,9.99,1111122 
DISL,ioos:station:DISL:MHPA:1,2008-02-05T21:30:00Z,30.6671,-87.9365,3.503,10.04,1111122 
DISL,ioos:station:DISL:MHPA:1,2008-02-05T22:00:00Z,30.6671,-87.9365,3.638,9.92,1111122 
DISL,ioos:station:DISL:MHPA:1,2008-02-05T22:30:00Z,30.6671,-87.9365,3.701,9.73,1111122 
DISL,ioos:station:DISL:MHPA:1,2008-02-05T23:00:00Z,30.6671,-87.9365,3.845,9.83,1111122 
DISL,ioos:station:DISL:MHPA:1,2008-02-05T23:30:00Z,30.6671,-87.9365,3.983,9.88,1111122 
DISL,ioos:station:DISL:MHPA:1,2008-02-06T00:00:00Z,30.6671,-87.9365,4.115,9.73,1111122 
DISL,ioos:station:DISL:MHPA:1,2008-02-06T00:30:00Z,30.6671,-87.9365,4.198,9.68,1111122 
DISL,ioos:station:DISL:MHPA:1,2008-02-06T01:00:00Z,30.6671,-87.9365,4.252,9.61,1111122 
DISL,ioos:station:DISL:MHPA:1,2008-02-06T01:30:00Z,30.6671,-87.9365,4.371,9.75,1111122 
DISL,ioos:station:DISL:MHPA:1,2008-02-06T02:00:00Z,30.6671,-87.9365,4.501,9.85,1111122 
DISL,ioos:station:DISL:MHPA:1,2008-02-06T02:30:00Z,30.6671,-87.9365,4.618,9.86,1111122 
DISL,ioos:station:DISL:MHPA:1,2008-02-06T03:00:00Z,30.6671,-87.9365,4.743,9.65,1111122 
DISL,ioos:station:DISL:MHPA:1,2008-02-06T03:30:00Z,30.6671,-87.9365,4.867,9.73,1111122 
DISL,ioos:station:DISL:MHPA:1,2008-02-06T04:00:00Z,30.6671,-87.9365,4.947,9.29,1111122 
DISL,ioos:station:DISL:MHPA:1,2008-02-06T04:30:00Z,30.6671,-87.9365,5.005,9.21,1111122 
DISL,ioos:station:DISL:MHPA:1,2008-02-06T05:00:00Z,30.6671,-87.9365,5.056,9.08,1111122 
DISL,ioos:station:DISL:MHPA:1,2008-02-06T05:30:00Z,30.6671,-87.9365,5.082,9.04,1111122 
DISL,ioos:station:DISL:MHPA:1,2008-02-06T06:00:00Z,30.6671,-87.9365,5.032,9.04,1111122 
DISL,ioos:station:DISL:MHPA:1,2008-02-06T06:30:00Z,30.6671,-87.9365,4.979,9.13,1111122 
DISL,ioos:station:DISL:MHPA:1,2008-02-06T07:00:00Z,30.6671,-87.9365,4.934,9.1,1111122 
DISL,ioos:station:DISL:MHPA:1,2008-02-06T07:30:00Z,30.6671,-87.9365,4.769,9.08,1111122 
DISL,ioos:station:DISL:MHPA:1,2008-02-06T08:00:00Z,30.6671,-87.9365,4.65,8.75,1111122 
DISL,ioos:station:DISL:MHPA:1,2008-02-06T08:30:00Z,30.6671,-87.9365,4.581,8.79,1111122 
DISL,ioos:station:DISL:MHPA:1,2008-02-06T09:00:00Z,30.6671,-87.9365,4.56,8.91,1111122 
DISL,ioos:station:DISL:MHPA:1,2008-02-06T09:30:00Z,30.6671,-87.9365,4.458,8.93,1111122 
DISL,ioos:station:DISL:MHPA:1,2008-02-06T10:00:00Z,30.6671,-87.9365,4.413,8.93,1111122 
DISL,ioos:station:DISL:MHPA:1,2008-02-06T10:30:00Z,30.6671,-87.9365,4.309,8.91,1111122 
DISL,ioos:station:DISL:MHPA:1,2008-02-06T11:00:00Z,30.6671,-87.9365,4.245,8.94,1111122 
DISL,ioos:station:DISL:MHPA:1,2008-02-06T11:30:00Z,30.6671,-87.9365,4.123,8.89,1111122 
DISL,ioos:station:DISL:MHPA:1,2008-02-06T12:00:00Z,30.6671,-87.9365,4.059,8.73,1111122 
DISL,ioos:station:DISL:MHPA:1,2008-02-06T12:30:00Z,30.6671,-87.9365,3.953,8.69,1111122 
DISL,ioos:station:DISL:MHPA:1,2008-02-06T13:00:00Z,30.6671,-87.9365,4.079,8.83,1111122 
DISL,ioos:station:DISL:MHPA:1,2008-02-06T13:30:00Z,30.6671,-87.9365,3.947,8.58,1111122 
DISL,ioos:station:DISL:MHPA:1,2008-02-06T14:00:00Z,30.6671,-87.9365,3.779,8.7,1111122 